KLM49Q GCXO-GCFV

Flight info

Callsign KLM49Q
Flight time 0h 27m
Altitude 16000
Route GDV
Aircraft B738/M-SDE2E3FGHIRWXY/LB1

Departure

Time 2026-05-03 21:59
Airport Tenerife Norte-Ciudad de La Laguna Airport (GCXO)

Arrival

Time 2026-05-03 22:27
Airport Fuerteventura Airport (GCFV)
Time Latitude Longitude Altitude Speed Heading
2026-05-03 21:41 28.48713 -16.34787 2074 ft 0 kts 50°
2026-05-03 21:53 28.48712 -16.34789 2074 ft 2 kts 50°
2026-05-03 21:53 28.48696 -16.34811 2050 ft 4 kts 51°
2026-05-03 21:53 28.48679 -16.34835 2075 ft 4 kts 53°
2026-05-03 21:54 28.48664 -16.34860 2074 ft 4 kts 56°
2026-05-03 21:54 28.48649 -16.34886 2079 ft 4 kts 63°
2026-05-03 21:54 28.48640 -16.34914 2082 ft 4 kts 84°
2026-05-03 21:54 28.48640 -16.34933 2082 ft 3 kts 110°
2026-05-03 21:55 28.48641 -16.34936 2083 ft 0 kts 110°
2026-05-03 21:55 28.48641 -16.34934 2083 ft 2 kts 110°
2026-05-03 21:55 28.48624 -16.34882 2081 ft 12 kts 110°
2026-05-03 21:55 28.48584 -16.34762 2074 ft 19 kts 110°
2026-05-03 21:56 28.48534 -16.34610 2068 ft 22 kts 110°
2026-05-03 21:56 28.48474 -16.34427 2059 ft 28 kts 110°
2026-05-03 21:56 28.48394 -16.34183 2049 ft 35 kts 110°
2026-05-03 21:56 28.48304 -16.33918 2046 ft 36 kts 111°
2026-05-03 21:57 28.48218 -16.33657 2037 ft 34 kts 110°
2026-05-03 21:57 28.48137 -16.33411 2035 ft 32 kts 111°
2026-05-03 21:57 28.48058 -16.33176 2032 ft 32 kts 110°
2026-05-03 21:57 28.47980 -16.32941 2017 ft 31 kts 110°
2026-05-03 21:58 28.47913 -16.32739 2013 ft 22 kts 110°
2026-05-03 21:58 28.47861 -16.32596 2012 ft 19 kts 126°
2026-05-03 21:58 28.47764 -16.32537 2014 ft 16 kts 197°
2026-05-03 21:58 28.47751 -16.32604 2015 ft 7 kts 291°
2026-05-03 21:59 28.47816 -16.32794 2018 ft 62 kts 290°
2026-05-03 21:59 28.48066 -16.33553 2039 ft 140 kts 290°
2026-05-03 21:59 28.48500 -16.34811 2224 ft 192 kts 292°
2026-05-03 21:59 28.49021 -16.36273 3125 ft 200 kts 295°
2026-05-03 22:00 28.49891 -16.37407 4283 ft 195 kts 334°
2026-05-03 22:00 28.51276 -16.37608 4733 ft 217 kts 13°
2026-05-03 22:00 28.52657 -16.36721 5002 ft 243 kts 41°
2026-05-03 22:00 28.53679 -16.35083 5239 ft 274 kts 67°
2026-05-03 22:01 28.53940 -16.32919 6042 ft 281 kts 96°
2026-05-03 22:01 28.53647 -16.30696 6874 ft 286 kts 97°
2026-05-03 22:01 28.53381 -16.28415 7588 ft 292 kts 97°
2026-05-03 22:01 28.53121 -16.26134 8362 ft 297 kts 97°
2026-05-03 22:02 28.52853 -16.23788 9153 ft 300 kts 97°
2026-05-03 22:02 28.52580 -16.21417 9972 ft 304 kts 98°
2026-05-03 22:02 28.52300 -16.18995 10514 ft 317 kts 98°
2026-05-03 22:02 28.51999 -16.16415 10679 ft 342 kts 98°
2026-05-03 22:03 28.51675 -16.13645 10887 ft 363 kts 98°
2026-05-03 22:03 28.51334 -16.10751 11373 ft 373 kts 98°
2026-05-03 22:03 28.50986 -16.07802 12027 ft 378 kts 98°
2026-05-03 22:03 28.50635 -16.04827 12710 ft 381 kts 98°
2026-05-03 22:04 28.50282 -16.01853 13350 ft 386 kts 98°
2026-05-03 22:04 28.49921 -15.98811 13983 ft 391 kts 98°
2026-05-03 22:04 28.49553 -15.95722 14558 ft 396 kts 98°
2026-05-03 22:04 28.49181 -15.92604 15164 ft 399 kts 99°
2026-05-03 22:05 28.48806 -15.89462 15766 ft 402 kts 99°
2026-05-03 22:05 28.48426 -15.86296 16364 ft 406 kts 99°
2026-05-03 22:05 28.48046 -15.83132 16930 ft 410 kts 99°
2026-05-03 22:05 28.47657 -15.79898 17118 ft 415 kts 99°
2026-05-03 22:06 28.47263 -15.76632 17119 ft 416 kts 99°
2026-05-03 22:06 28.46870 -15.73375 17128 ft 415 kts 99°
2026-05-03 22:06 28.46477 -15.70118 17130 ft 415 kts 99°
2026-05-03 22:06 28.46087 -15.66902 17129 ft 415 kts 99°
2026-05-03 22:07 28.45692 -15.63646 17124 ft 415 kts 99°
2026-05-03 22:07 28.45296 -15.60393 17120 ft 415 kts 99°
2026-05-03 22:07 28.44898 -15.57129 17119 ft 415 kts 99°
2026-05-03 22:07 28.44505 -15.53914 17119 ft 415 kts 99°
2026-05-03 22:08 28.44106 -15.50660 17123 ft 415 kts 99°
2026-05-03 22:08 28.43707 -15.47411 17121 ft 415 kts 99°
2026-05-03 22:08 28.43307 -15.44155 17121 ft 415 kts 99°
2026-05-03 22:08 28.42906 -15.40904 17120 ft 415 kts 99°
2026-05-03 22:09 28.42505 -15.37651 17120 ft 415 kts 99°
2026-05-03 22:09 28.42106 -15.34430 17122 ft 415 kts 99°
2026-05-03 22:09 28.41701 -15.31161 17123 ft 415 kts 99°
2026-05-03 22:10 28.40893 -15.24668 17119 ft 415 kts 99°
2026-05-03 22:10 28.40487 -15.21410 17132 ft 415 kts 99°
2026-05-03 22:10 28.40086 -15.18200 17130 ft 415 kts 99°
2026-05-03 22:10 28.39678 -15.14945 17131 ft 415 kts 99°
2026-05-03 22:11 28.39272 -15.11701 17114 ft 415 kts 99°
2026-05-03 22:11 28.38862 -15.08444 17122 ft 414 kts 99°
2026-05-03 22:11 28.38461 -15.05249 17108 ft 401 kts 99°
2026-05-03 22:11 28.38076 -15.02193 17100 ft 389 kts 99°
2026-05-03 22:12 28.37696 -14.99173 16811 ft 383 kts 99°
2026-05-03 22:12 28.37319 -14.96195 16479 ft 379 kts 99°
2026-05-03 22:12 28.36943 -14.93242 16122 ft 376 kts 99°
2026-05-03 22:12 28.36570 -14.90312 15748 ft 373 kts 99°
2026-05-03 22:13 28.36198 -14.87391 15367 ft 371 kts 99°
2026-05-03 22:13 28.35833 -14.84534 14997 ft 369 kts 99°
2026-05-03 22:13 28.35463 -14.81642 14603 ft 369 kts 99°
2026-05-03 22:13 28.35091 -14.78733 14234 ft 381 kts 99°
2026-05-03 22:14 28.34690 -14.75624 13810 ft 413 kts 99°
2026-05-03 22:14 28.34266 -14.72329 13317 ft 425 kts 99°
2026-05-03 22:14 28.33843 -14.69041 12852 ft 424 kts 99°
2026-05-03 22:14 28.33419 -14.65748 12401 ft 418 kts 99°
2026-05-03 22:15 28.32999 -14.62489 11961 ft 414 kts 99°
2026-05-03 22:15 28.32581 -14.59255 11512 ft 410 kts 99°
2026-05-03 22:15 28.32173 -14.56103 11096 ft 407 kts 99°
2026-05-03 22:15 28.31761 -14.52930 10702 ft 403 kts 99°
2026-05-03 22:16 28.31353 -14.49795 10546 ft 402 kts 99°
2026-05-03 22:16 28.30940 -14.46629 10377 ft 406 kts 99°
2026-05-03 22:16 28.30531 -14.43503 10202 ft 404 kts 99°
2026-05-03 22:16 28.30116 -14.40326 9844 ft 408 kts 98°
2026-05-03 22:17 28.29698 -14.37146 9421 ft 403 kts 98°
2026-05-03 22:17 28.29292 -14.34055 9035 ft 396 kts 98°
2026-05-03 22:17 28.28887 -14.30980 8650 ft 393 kts 98°
2026-05-03 22:17 28.28485 -14.27928 8273 ft 389 kts 98°
2026-05-03 22:18 28.28087 -14.24910 7898 ft 381 kts 98°
2026-05-03 22:18 28.27697 -14.21963 7535 ft 373 kts 98°
2026-05-03 22:18 28.27314 -14.19075 7180 ft 366 kts 98°
2026-05-03 22:18 28.26939 -14.16247 6832 ft 359 kts 98°
2026-05-03 22:19 28.26569 -14.13467 6481 ft 353 kts 98°
2026-05-03 22:19 28.26207 -14.10751 5995 ft 351 kts 97°
2026-05-03 22:19 28.25845 -14.08026 5637 ft 345 kts 97°
2026-05-03 22:19 28.25489 -14.05362 5310 ft 338 kts 96°
2026-05-03 22:20 28.25139 -14.02751 4984 ft 332 kts 96°
2026-05-03 22:20 28.24796 -14.00195 4690 ft 319 kts 96°
2026-05-03 22:20 28.24481 -13.97853 4518 ft 286 kts 96°
2026-05-03 22:20 28.24196 -13.95751 4363 ft 254 kts 95°
2026-05-03 22:21 28.23941 -13.93852 4304 ft 240 kts 95°
2026-05-03 22:21 28.23689 -13.91971 4203 ft 241 kts 95°
2026-05-03 22:21 28.23453 -13.90104 4021 ft 237 kts 90°
2026-05-03 22:21 28.23758 -13.88328 3809 ft 227 kts 54°
2026-05-03 22:22 28.24938 -13.87237 3721 ft 219 kts 15°
2026-05-03 22:22 28.26383 -13.87039 3496 ft 202 kts
2026-05-03 22:22 28.27729 -13.86971 3239 ft 185 kts
2026-05-03 22:22 28.28949 -13.86920 3000 ft 170 kts
2026-05-03 22:23 28.30080 -13.86881 2772 ft 156 kts
2026-05-03 22:23 28.31147 -13.86846 2589 ft 151 kts
2026-05-03 22:23 28.32178 -13.86811 2385 ft 145 kts
2026-05-03 22:23 28.33177 -13.86778 2238 ft 140 kts
2026-05-03 22:24 28.34177 -13.86744 1974 ft 153 kts
2026-05-03 22:24 28.35234 -13.86733 1864 ft 149 kts
2026-05-03 22:24 28.36251 -13.86724 1669 ft 145 kts
2026-05-03 22:24 28.37266 -13.86693 1400 ft 148 kts
2026-05-03 22:25 28.38307 -13.86639 1165 ft 151 kts
2026-05-03 22:25 28.39353 -13.86573 947 ft 149 kts
2026-05-03 22:25 28.40398 -13.86560 795 ft 151 kts
2026-05-03 22:25 28.41439 -13.86527 600 ft 152 kts
2026-05-03 22:26 28.42517 -13.86477 389 ft 156 kts
2026-05-03 22:26 28.43593 -13.86440 143 ft 148 kts
2026-05-03 22:26 28.44538 -13.86399 59 ft 117 kts
2026-05-03 22:26 28.45146 -13.86383 77 ft 57 kts
2026-05-03 22:27 28.45359 -13.86374 80 ft 18 kts
2026-05-03 22:27 28.45407 -13.86418 81 ft 14 kts 282°
2026-05-03 22:27 28.45401 -13.86557 94 ft 13 kts 232°
2026-05-03 22:27 28.45370 -13.86610 97 ft 12 kts 262°
2026-05-03 22:28 28.45353 -13.86732 98 ft 12 kts 231°
2026-05-03 22:28 28.45332 -13.86788 98 ft 12 kts 264°
2026-05-03 22:28 28.45333 -13.86831 98 ft 0 kts 269°